Fort Indiantown Gap, PA

4:37 PM EDT on October 15, 2019 (GMT -0400)
Muir Army Air Field

Weather History for KMUI - September, 2019

Change the Weather History Date:

Wednesday, September 18, 2019

  Actual Average Record
Temperature  
Mean Temperature 62 °F -  
Max Temperature 74 °F 72 °F 84 °F (2006)
Min Temperature 50 °F 56 °F 39 °F (2013)
Degree Days  
Heating Degree Days 3    
Growing Degree Days 12 (Base 50)    
Moisture  
Dew Point 47 °F    
Average Humidity 59    
Maximum Humidity 86    
Minimum Humidity 32    
Precipitation  
Precipitation 0.00 in - - ()
Sea Level Pressure  
Sea Level Pressure 30.23 in    
Wind  
Wind Speed 4 mph (ENE)    
Max Wind Speed 12 mph    
Max Gust Speed 18 mph    
Visibility 10 miles    
Events      
Averages and records for this station are not official NWS values.
T = Trace of Precipitation, MM = Missing Value Source: NWS Daily Summary

Daily Weather History Graph

Daily Weather History Graph

Search for Another Location

Airport or City:

Astronomy

Sep. 18, 2019 Rise Set
Actual Time 6:49 AM EDT 7:10 PM EDT
Civil Twilight 6:22 AM EDT 7:37 PM EDT
Nautical Twilight 5:50 AM EDT 8:09 PM EDT
Astronomical Twilight 5:17 AM EDT 8:42 PM EDT
Moon 9:42 PM EDT (9/18) 10:51 AM EDT (9/18)
Length of Visible Light 13h 15m
Length of Day
12h 20m
Waning Gibbous, 82% of the Moon is Illuminated
Sep 18
Waning Gibbous
Sep 21
Last Quarter
Sep 28
New
Oct 5
First Quarter
Oct 13
Full

Hourly Weather History & Observations

Time (EDT) Temp. Dew Point Humidity Pressure Visibility Wind Dir Wind Speed Gust Speed Precip Events Conditions
12:56 AM 62.1 °F 48.9 °F 62% 30.17 in 10.0 mi East 3.5 mph - N/A   Clear
1:56 AM 60.4 °F 47.8 °F 63% 30.17 in 10.0 mi NE 4.6 mph - N/A   Clear
2:56 AM 60.3 °F 46.8 °F 61% 30.17 in 10.0 mi NE 4.6 mph - N/A   Clear
3:56 AM 58.8 °F 46.6 °F 64% 30.17 in 10.0 mi NE 3.5 mph - N/A   Clear
4:56 AM 55.0 °F 45.9 °F 71% 30.19 in 10.0 mi NNE 3.5 mph - N/A   Clear
5:56 AM 51.3 °F 45.7 °F 81% 30.20 in 10.0 mi NE 3.5 mph - N/A   Clear
6:56 AM 50.7 °F 46.0 °F 84% 30.23 in 10.0 mi East 3.5 mph - N/A   Clear
7:56 AM 54.9 °F 47.8 °F 77% 30.24 in 10.0 mi Calm Calm - N/A   Clear
8:56 AM 62.1 °F 47.5 °F 59% 30.25 in 10.0 mi NE 6.9 mph - N/A   Clear
9:56 AM 64.8 °F 45.7 °F 50% 30.26 in 10.0 mi NE 5.8 mph - N/A   Clear
10:56 AM 66.9 °F 46.6 °F 48% 30.26 in 10.0 mi ENE 8.1 mph - N/A   Partly Cloudy
11:56 AM 69.6 °F 45.5 °F 42% 30.26 in 10.0 mi East 5.8 mph - N/A   Partly Cloudy
12:56 PM 71.6 °F 43.9 °F 37% 30.24 in 10.0 mi ENE 9.2 mph - N/A   Partly Cloudy
1:56 PM 72.9 °F 45.0 °F 37% 30.23 in 10.0 mi ENE 5.8 mph - N/A   Partly Cloudy
2:56 PM 74.8 °F 43.0 °F 32% 30.22 in 10.0 mi East 9.2 mph - N/A   Partly Cloudy
3:56 PM 74.7 °F 45.1 °F 35% 30.22 in 10.0 mi East 11.5 mph 18.4 mph N/A   Partly Cloudy
4:56 PM 74.1 °F 46.9 °F 38% 30.22 in 10.0 mi East 5.8 mph - N/A   Partly Cloudy
5:56 PM 71.6 °F 46.6 °F 41% 30.22 in 10.0 mi East 4.6 mph - N/A   Mostly Cloudy
6:56 PM 69.3 °F 46.4 °F 44% 30.23 in 10.0 mi Calm Calm - N/A   Mostly Cloudy
7:56 PM 62.1 °F 49.8 °F 64% 30.25 in 10.0 mi Calm Calm - N/A   Scattered Clouds
8:56 PM 57.6 °F 49.6 °F 75% 30.26 in 10.0 mi NE 3.5 mph - N/A   Clear
9:56 PM 56.1 °F 48.7 °F 76% 30.28 in 10.0 mi Calm Calm - N/A   Clear
10:56 PM 53.6 °F 49.5 °F 86% 30.29 in 10.0 mi Calm Calm - N/A   Clear
11:56 PM 54.5 °F 48.2 °F 79% 30.31 in 10.0 mi Calm Calm - N/A   Clear